When you browse on this site, cookies collect data to enhance your experience and personalize the content and advertising you see.
Visit our Privacy Policy to learn more. By continuing to use the site, you agree to this use of cookies and data.
  • In Romania
  • List of Countries
  • For 7 days
  • Water Temperature
  • Satellite Maps
  • Weather Map
  • Weather Widgets
  • user-avatar
    Login

    Hourly Weather Pontypool

    Today, 16 January, Wednesday

    Time Temperature Precipitation Wind Pressure Humidity
    00:00 +7°C° 0.2 mm 8 mps 743 mmHg 90%
    01:00 +7°C° 0.4 mm 8 mps 743 mmHg 90%
    02:00 +7°C° 0.4 mm 8 mps 742 mmHg 90%
    03:00 +7°C° 0.4 mm 8 mps 741 mmHg 90%
    04:00 +7°C° 0.5 mm 8 mps 740 mmHg 90%
    05:00 +7°C° 0.5 mm 8 mps 739 mmHg 89%
    06:00 +7°C° 0.5 mm 8 mps 738 mmHg 89%
    07:00 +7°C° 0.1 mm 8 mps 738 mmHg 88%
    08:00 +6°C° 0.1 mm 7 mps 738 mmHg 87%
    09:00 +6°C° 0.1 mm 7 mps 737 mmHg 86%
    10:00 +6°C° 0.6 mm 7 mps 737 mmHg 85%
    11:00 +5°C° 0.6 mm 7 mps 737 mmHg 85%
    12:00 +5°C° 0.6 mm 7 mps 737 mmHg 84%
    13:00 +5°C° 0.1 mm 7 mps 737 mmHg 81%
    14:00 +5°C° 0.1 mm 6 mps 737 mmHg 77%
    15:00 +5°C° 0.1 mm 6 mps 737 mmHg 74%
    16:00 +4°C° 0 mm 6 mps 736 mmHg 77%
    17:00 +3°C° 0 mm 5 mps 736 mmHg 79%
    18:00 +2°C° 0 mm 5 mps 736 mmHg 81%
    19:00 +2°C° 0 mm 5 mps 736 mmHg 81%
    20:00 +2°C° 0 mm 6 mps 736 mmHg 81%
    21:00 +2°C° 0 mm 6 mps 736 mmHg 81%
    22:00 +2°C° 0.1 mm 6 mps 737 mmHg 82%
    23:00 +2°C° 0.1 mm 6 mps 737 mmHg 83%

    Tomorrow, 17 January, Thursday

    Time Temperature Precipitation Wind Pressure Humidity
    00:00 +2°C° 0.1 mm 6 mps 738 mmHg 83%
    01:00 +2°C° 0 mm 6 mps 738 mmHg 83%
    02:00 +1°C° 0 mm 5 mps 739 mmHg 84%
    03:00 +1°C° 0 mm 5 mps 739 mmHg 84%
    04:00 +1°C° 0 mm 5 mps 740 mmHg 84%
    05:00 +1°C° 0 mm 4 mps 741 mmHg 85%
    06:00 0°C° 0 mm 4 mps 742 mmHg 85%
    07:00 0°C° 0 mm 4 mps 743 mmHg 87%
    08:00 0°C° 0 mm 5 mps 744 mmHg 88%
    09:00 0°C° 0 mm 5 mps 745 mmHg 89%
    10:00 0°C° 0 mm 5 mps 746 mmHg 80%
    11:00 +1°C° 0 mm 5 mps 746 mmHg 70%
    12:00 +1°C° 0 mm 5 mps 747 mmHg 60%
    13:00 +1°C° 0 mm 4 mps 747 mmHg 62%
    14:00 +2°C° 0 mm 3 mps 748 mmHg 63%
    15:00 +3°C° 0 mm 2 mps 748 mmHg 64%
    16:00 +3°C° 0 mm 1 mps 748 mmHg 67%
    17:00 +2°C° 0 mm 1 mps 748 mmHg 69%
    18:00 0°C° 0 mm 0 mps 748 mmHg 72%
    19:00 +1°C° 0 mm 1 mps 748 mmHg 72%
    20:00 +2°C° 0 mm 1 mps 749 mmHg 71%
    21:00 +2°C° 0 mm 1 mps 749 mmHg 71%
    22:00 +1°C° 0 mm 2 mps 748 mmHg 72%
    23:00 0°C° 0 mm 3 mps 748 mmHg 72%

    Day after tomorrow, 18 January, Friday

    Time Temperature Precipitation Wind Pressure Humidity
    00:00 0°C° 0 mm 3 mps 748 mmHg 73%
    01:00 -1°C° 0 mm 4 mps 747 mmHg 72%
    02:00 -2°C° 0 mm 4 mps 746 mmHg 71%
    03:00 -2°C° 0 mm 4 mps 746 mmHg 70%
    04:00 -1°C° 0 mm 5 mps 745 mmHg 72%
    05:00 0°C° 0 mm 5 mps 744 mmHg 75%
    06:00 -1°C° 0 mm 6 mps 743 mmHg 77%
    07:00 +1°C° 0.4 mm 6 mps 742 mmHg 81%
    08:00 +2°C° 0.4 mm 7 mps 742 mmHg 85%
    09:00 +3°C° 0.4 mm 7 mps 741 mmHg 90%
    10:00 +3°C° 2.1 mm 7 mps 741 mmHg 91%
    11:00 +4°C° 2.1 mm 7 mps 741 mmHg 93%
    12:00 +4°C° 2.1 mm 7 mps 740 mmHg 94%
    13:00 +4°C° 0.2 mm 6 mps 740 mmHg 93%
    14:00 +6°C° 0.2 mm 5 mps 739 mmHg 92%
    15:00 +7°C° 0.2 mm 3 mps 739 mmHg 91%
    16:00 +5°C° 0 mm 3 mps 739 mmHg 91%
    17:00 +6°C° 0 mm 2 mps 738 mmHg 91%
    18:00 +5°C° 0 mm 2 mps 738 mmHg 91%
    19:00 +5°C° 0.1 mm 2 mps 738 mmHg 91%
    20:00 +4°C° 0.1 mm 2 mps 738 mmHg 90%
    21:00 +4°C° 0.1 mm 2 mps 738 mmHg 90%
    22:00 +5°C° 0.1 mm 2 mps 738 mmHg 91%
    23:00 +5°C° 0.1 mm 2 mps 738 mmHg 92%

    19 January, Saturday

    Time Temperature Precipitation Wind Pressure Humidity
    00:00 +5°C° 0.1 mm 2 mps 738 mmHg 94%
    01:00 +5°C° 0 mm 2 mps 738 mmHg 94%
    02:00 +4°C° 0 mm 2 mps 737 mmHg 95%
    03:00 +5°C° 0 mm 1 mps 737 mmHg 95%
    04:00 +4°C° 0 mm 1 mps 737 mmHg 96%
    05:00 +4°C° 0 mm 1 mps 737 mmHg 96%
    06:00 +4°C° 0 mm 1 mps 737 mmHg 96%
    07:00 +4°C° 0 mm 1 mps 737 mmHg 96%
    08:00 +4°C° 0 mm 1 mps 738 mmHg 96%
    09:00 +4°C° 0 mm 1 mps 738 mmHg 95%
    10:00 +5°C° 0 mm 1 mps 738 mmHg 93%
    11:00 +6°C° 0 mm 1 mps 738 mmHg 91%
    12:00 +5°C° 0 mm 2 mps 739 mmHg 89%
    13:00 +5°C° 0 mm 2 mps 739 mmHg 89%
    14:00 +5°C° 0 mm 2 mps 739 mmHg 89%
    15:00 +4°C° 0 mm 3 mps 739 mmHg 90%
    16:00 +4°C° 0 mm 3 mps 739 mmHg 91%
    17:00 +3°C° 0 mm 3 mps 740 mmHg 93%
    18:00 +2°C° 0 mm 3 mps 740 mmHg 94%
    19:00 +2°C° 0 mm 3 mps 741 mmHg 94%
    20:00 +2°C° 0 mm 3 mps 742 mmHg 94%
    21:00 +2°C° 0 mm 3 mps 742 mmHg 94%
    22:00 +2°C° 0 mm 3 mps 743 mmHg 95%
    23:00 +2°C° 0 mm 3 mps 743 mmHg 95%

    20 January, Sunday

    Time Temperature Precipitation Wind Pressure Humidity
    00:00 +2°C° 0 mm 3 mps 744 mmHg 95%
    01:00 +2°C° 0 mm 3 mps 744 mmHg 96%
    02:00 +3°C° 0 mm 3 mps 744 mmHg 97%
    03:00 +3°C° 0 mm 3 mps 745 mmHg 97%
    04:00 +3°C° 0 mm 3 mps 745 mmHg 97%
    05:00 +3°C° 0 mm 3 mps 746 mmHg 97%
    06:00 +3°C° 0 mm 3 mps 746 mmHg 97%
    07:00 +3°C° 0.1 mm 3 mps 747 mmHg 96%
    08:00 +4°C° 0.1 mm 2 mps 748 mmHg 96%
    09:00 +4°C° 0.1 mm 2 mps 749 mmHg 96%
    10:00 +4°C° 0.1 mm 2 mps 749 mmHg 93%
    11:00 +5°C° 0.1 mm 2 mps 749 mmHg 91%
    12:00 +4°C° 0.1 mm 3 mps 750 mmHg 88%
    13:00 +4°C° 0 mm 3 mps 750 mmHg 87%
    14:00 +4°C° 0 mm 3 mps 750 mmHg 86%
    15:00 +4°C° 0 mm 3 mps 751 mmHg 85%
    16:00 +3°C° 0 mm 3 mps 751 mmHg 87%
    17:00 +3°C° 0 mm 3 mps 752 mmHg 89%
    18:00 +2°C° 0 mm 3 mps 752 mmHg 91%
    19:00 +1°C° 0 mm 3 mps 753 mmHg 92%
    20:00 0°C° 0 mm 3 mps 753 mmHg 92%
    21:00 0°C° 0 mm 3 mps 753 mmHg 93%
    22:00 -1°C° 0 mm 2 mps 754 mmHg 93%
    23:00 -1°C° 0 mm 2 mps 754 mmHg 93%

    21 January, Monday

    Time Temperature Precipitation Wind Pressure Humidity
    00:00 -1°C° 0 mm 2 mps 754 mmHg 93%
    01:00 -1°C° 0 mm 2 mps 754 mmHg 93%
    02:00 -2°C° 0 mm 2 mps 754 mmHg 93%
    03:00 -2°C° 0 mm 2 mps 754 mmHg 93%
    04:00 -2°C° 0 mm 2 mps 754 mmHg 93%
    05:00 0°C° 0 mm 1 mps 754 mmHg 92%
    06:00 0°C° 0 mm 1 mps 754 mmHg 92%
    07:00 0°C° 0 mm 1 mps 754 mmHg 91%
    08:00 0°C° 0 mm 1 mps 753 mmHg 89%
    09:00 0°C° 0 mm 0 mps 753 mmHg 88%
    10:00 +2°C° 0 mm 1 mps 753 mmHg 84%
    11:00 +2°C° 0 mm 2 mps 752 mmHg 80%
    12:00 +2°C° 0 mm 3 mps 752 mmHg 76%
    13:00 +3°C° 0 mm 3 mps 751 mmHg 77%
    14:00 +3°C° 0 mm 3 mps 750 mmHg 79%
    15:00 +3°C° 0 mm 4 mps 749 mmHg 80%
    16:00 +3°C° 0.1 mm 5 mps 748 mmHg 83%
    17:00 +3°C° 0.1 mm 5 mps 747 mmHg 85%
    18:00 +3°C° 0.1 mm 6 mps 746 mmHg 87%
    19:00 +3°C° 0.4 mm 7 mps 745 mmHg 88%
    20:00 +3°C° 0.4 mm 7 mps 744 mmHg 88%
    21:00 +2°C° 0.4 mm 8 mps 743 mmHg 88%
    22:00 +3°C° 0.9 mm 6 mps 743 mmHg 87%
    23:00 +2°C° 0.9 mm 5 mps 742 mmHg 85%
    Show more